Regional Weather Roundup
Issued by NWS

Home | Current Version | Previous Version | Text Only | Print | Product List | Glossary Off
Versions: 1 2 3 4 5 6 7 8 9 10 11 12 13 14 15 16 17 18 19 20 21 22 23 24 25 26 27 28 29 30 31 32 33 34 35 36 37 38 39 40 41 42 43 44 45 46 47 48 49 50

000
ASUS43 KLSX 291707
RWRMO

WEATHER SUMMARY FOR MISSOURI
NATIONAL WEATHER SERVICE SPRINGFIELD MO
1200 PM CDT MON AUG 29 2016

NOTE: "FAIR" INDICATES FEW OR NO CLOUDS BELOW 12,000 FEET WITH NO
       SIGNIFICANT WEATHER AND/OR OBSTRUCTIONS TO VISIBILITY.
       CURRENT SKY AND/OR WEATHER CONDITIONS ARE NOT AVAILABLE FOR
       CHILLICOTHE AND FARMINGTON.

MOZ001>031-035>038-043-044-053-054-291800-
...NORTHERN AND WESTERN MISSOURI...

CITY           SKY/WX    TMP DP  RH WIND       PRES   REMARKS
KANSAS CTY INT MOSUNNY   87  73  62 VRB5      30.21S HX  94
KANSAS C DTWN  SUNNY     88  72  58 NE3       30.19S HX  94
LEE`S SUMMIT   MOSUNNY   87  70  56 VRB5      30.21S HX  92
ST JOSEPH      SUNNY     86  71  60 CALM      30.19F HX  91
CHILLICOTHE      N/A     87  73  62 S3        30.21S HX  94
KIRKSVILLE     MOSUNNY   85  75  72 VRB3      30.24R HX  93

$$
MOZ066>068-077>081-088>096-101>105-291800-
...SOUTHWEST MISSOURI...

CITY           SKY/WX    TMP DP  RH WIND       PRES   REMARKS
SPRINGFIELD    MOSUNNY   89  66  46 SE6       30.20S HX  91
JOPLIN         MOSUNNY   87  70  56 VRB5      30.19S HX  92
BRANSON        MOSUNNY   86  72  62 E7        30.22R HX  92

$$
MOZ032>034-039>042-045>050-055>058-069>072-291800-
...CENTRAL MISSOURI...

CITY           SKY/WX    TMP DP  RH WIND       PRES   REMARKS
COLUMBIA       MOSUNNY   87  74  64 SE6       30.21F HX  95
JEFFERSON CITY SUNNY     88  73  61 SE5       30.19F HX  95
ROLLA          MOSUNNY   86  71  60 CALM      30.21S HX  91
SEDALIA        PTSUNNY   87  71  58 CALM      30.22S HX  93
WHITEMAN AFB   PTSUNNY   87  74  64 CALM      30.19S HX  95
OSAGE BEACH    SUNNY     87  75  67 NE6       30.21F HX  96

$$
MOZ051-052-059>065-291800-
...EAST CENTRAL MISSOURI...

CITY           SKY/WX    TMP DP  RH WIND       PRES   REMARKS
ST LOUIS INTL  MOSUNNY   90  72  55 E7        30.21S HX  97
SPIRIT OF STL  PTSUNNY   87  75  67 E5        30.19S HX  96
ST CHARLES     SUNNY     88  75  65 E5        30.20S HX  97

$$
MOZ072>076-082>087-097>100-106>115-291800-
...SOUTH CENTRAL AND SOUTHEAST MISSOURI...

CITY           SKY/WX    TMP DP  RH WIND       PRES   REMARKS
CAPE GIRARDEAU SUNNY     88  72  58 NE8       30.17S HX  94
FARMINGTON     MOSUNNY   87  75  67 VRB6      30.22S HX  96
POPLAR BLUFF   SUNNY     89  76  65 NE7       30.16S HX 100
WEST PLAINS    SUNNY     88  71  57 NE5       30.23S HX  94

$$


USA.gov is the U.S. government's official web portal to all federal, state and local government web resources and services.